BADR-7 (ARABSAT-6B)

Last updated on Mon Oct 27 2025 00:02:48 GMT+0000 (Coordinated Universal Time)

1 41029U 15065B 25299.47918987 .00000157 00000+0 00000+0 0 9994 2 41029 0.0293 232.9947 0006573 0.0591 0.5781 1.00271057 36423
UTC large
Height (km)
Speed (km/s)
/
Latitude / Longitude
Inclination (degrees)
Orbital Period (minutes)
Azimuth
Elevation
Range (km)
Doppler Factor

Next 0 passes for location: London (51.5072 / 0.1276)

Sorry there are no passes over London.